#timestamp,LO_Frequency,Hit,StdDev 
1711497615.5,286046998.1,N
1711497635.4,286046998.3,N
1711497655.2,286046998.3,N
1711497675.0,286047001.0,N
1711497675.9,286047001.0,N
1711497695.8,286047001.2,N
1711497715.6,286047000.9,N
1711497735.4,286047000.0,N
1711497755.3,286047000.9,N
1711497775.1,286047002.4,N
1711497795.9,286047002.5,N
1711497815.7,286047002.8,N
1711497835.5,286046999.8,N
1711497855.4,286047002.7,N
1711497875.2,286047002.8,N
1711497895.0,286047002.3,N
1711497895.9,286047002.3,N
1711497915.8,286047000.0,N
1711497935.6,286046998.6,N
1711497955.5,286047000.0,N
1711497975.3,286046998.3,N
1711497995.1,286046998.4,N
1711498015.9,286046998.4,N
1711498035.7,286046999.4,N
1711498055.5,286046999.0,N
1711498075.4,286046999.6,N
1711498095.2,286046999.5,N
1711498115.1,286046999.4,N
1711498116.0,286046999.4,N
1711498135.8,286046999.0,N
1711498155.6,286046997.0,N
1711498175.5,286046996.9,N
1711498195.3,286046997.8,N
1711498215.2,286046996.1,N
1711498235.9,286046995.6,N
1711498255.7,286046995.0,N
1711498275.6,286046997.9,N
1711498295.4,286046995.1,N
1711498315.3,286046996.2,N
1711498335.1,286046993.4,N
1711498355.8,286046995.4,N
1711498375.7,286046995.2,N
1711498395.5,286046995.0,N
1711498415.4,286046997.9,N
1711498435.2,286046997.2,N
1711498455.0,286046999.4,N
1711498455.9,286046999.4,N
1711498475.8,286046998.7,N
1711498495.6,286046999.2,N
1711498515.4,286046999.4,N
1711498535.3,286046998.9,N
1711498555.1,286046999.3,N
1711498575.9,286046997.4,N
1711498595.7,286046995.5,N
1711498615.5,286046997.3,N
1711498635.4,286046994.9,N
1711498655.2,286046995.9,N
1711498675.0,286046995.1,N
1711498676.0,286046995.1,N
1711498695.8,286046995.9,N
1711498715.6,286046995.2,N
1711498735.5,286046995.4,N
1711498755.3,286046997.7,N
1711498775.2,286046997.4,N
1711498795.9,286046997.8,N
1711498815.7,286046997.5,N
1711498835.6,286046996.9,N
1711498855.4,286046999.6,N
1711498875.3,286046999.2,N
1711498895.1,286046996.9,N
1711498915.8,286046999.2,N
1711498935.7,286046996.6,N
1711498955.5,286046995.5,N
1711498975.4,286046996.2,N
1711498995.2,286046995.9,N
1711499015.0,286046995.8,N
1711499015.9,286046995.8,N
1711499035.8,286046995.4,Y
1711499055.6,286046998.2,P
1711499075.5,286046999.0,N
1711499095.3,286046998.4,N
1711499115.1,286046999.5,N
1711499135.9,286046997.8,N
1711499155.7,286046998.0,N
1711499175.6,286046995.6,Y
1711499195.4,286046998.8,P
1711499215.2,286046998.3,P
1711499235.1,286046998.8,P
1711499236.0,286046998.8,Y
1711499255.8,286047000.4,P
1711499275.7,286046998.7,N
1711499295.5,286046996.6,P
1711499315.3,286046998.3,N
1711499335.2,286046999.1,N
1711499355.0,286046996.8,N
1711499355.9,286046996.8,N
1711499375.7,286046995.4,Y
1711499395.6,286046997.0,P
1711499415.4,286046998.9,N
1711499435.3,286046999.4,N
1711499455.1,286047000.6,N
1711499456.0,286047000.6,N
1711499475.8,286047001.8,N
1711499495.7,286047001.4,N
1711499515.5,286047001.7,N
1711499535.4,286047011.9,Y
1711499555.2,286047004.1,P
1711499575.0,286047003.6,N
1711499575.9,286047003.6,N
1711499595.8,286047003.4,N
1711499615.6,286047005.5,Y
1711499635.5,286046999.7,P
1711499655.3,286047002.0,N
1711499675.1,286046999.8,N
1711499695.9,286047002.8,N
1711499715.7,286047002.7,N
1711499735.6,286047001.1,N
1711499755.4,286047000.4,N
1711499775.2,286047000.6,N
1711499795.1,286047000.1,N
1711499796.0,286047000.1,N
1711499815.8,286046999.9,N
1711499835.7,286046999.8,N
1711499855.5,286047000.0,N
1711499875.3,286047000.1,N
1711499895.2,286047000.5,N
1711499915.0,286047000.0,N
1711499915.9,286047000.0,N
1711499935.8,286047000.1,N
1711499955.6,286047002.7,N
1711499975.4,286046999.7,N
1711499995.3,286047002.7,N
1711500015.1,286047002.6,N
1711500035.8,286047001.9,N
1711500055.7,286047002.5,N
1711500075.5,286047002.2,N
1711500095.4,286047002.4,N
1711500115.2,286047004.4,Y
1711500135.0,286047002.3,P
1711500135.9,286047002.3,P
1711500155.8,286047000.2,N
1711500175.6,286047000.3,N
1711500195.5,286047000.9,N
1711500215.3,286047001.1,N
1711500235.1,286047000.4,N
1711500255.9,286047000.8,N
1711500275.7,286047000.8,N
1711500295.6,286047000.1,N
1711500315.4,286047002.1,N
1711500335.2,286047001.5,N
1711500355.1,286047002.7,Y
1711500356.0,286047002.7,P
1711500375.8,286047000.9,N
1711500395.7,286047000.3,N
1711500415.5,286047000.0,N
1711500435.3,286047000.3,N
1711500455.2,286047002.8,Y
1711500475.0,286047001.0,P
1711500475.9,286047001.0,P
1711500495.8,286047001.1,P
1711500515.6,286047000.4,Y
1711500535.4,286046998.8,P
1711500555.3,286046997.1,N
1711500575.1,286046997.1,N
1711500595.9,286046999.6,N
1711500615.7,286046999.4,N
1711500635.5,286046996.6,N
1711500655.4,286046999.4,N
1711500675.2,286046999.6,N
1711500695.0,286046996.7,N
1711500696.0,286046996.7,N
1711500715.8,286046996.6,N
1711500735.6,286046999.5,N
1711500755.5,286046999.4,N
1711500775.3,286046999.0,N
1711500795.1,286046999.0,N
1711500815.9,286046998.7,N
1711500835.7,286046999.1,N
1711500855.6,286046998.4,N
1711500875.4,286047001.2,N
1711500895.2,286047000.8,N
1711500915.1,286047000.7,N
1711500916.0,286047000.7,N
1711500935.8,286046998.2,N
1711500955.6,286046998.1,N
1711500975.5,286046998.5,N
1711500995.3,286046998.5,N
1711501015.2,286046996.5,N
1711501035.9,286046998.9,N
1711501055.7,286046999.3,N
1711501075.6,286046998.2,N
1711501095.4,286046998.9,N
1711501115.2,286046999.3,N
1711501135.1,286046999.2,N
1711501136.0,286046999.2,N
1711501155.8,286046999.5,N
1711501175.7,286046996.9,N
1711501195.5,286046996.9,N
